Hatteras, NC

3:06 PM EST on November 18, 2017 (GMT -0500)
Mitchell

Weather History for KHSE - May, 2014

Change the Weather History Date:

Monday, May 19, 2014

  Actual Average Record
Temperature  
Mean Temperature 60 °F 68 °F  
Max Temperature 70 °F 74 °F 87 °F (1977)
Min Temperature 49 °F 61 °F 46 °F (1973)
Degree Days  
Heating Degree Days 5 1  
Month to date heating degree days 6 40  
Since 1 July heating degree days 2531 2574  
Cooling Degree Days 0 4  
Month to date cooling degree days 127 52  
Year to date cooling degree days 154 80  
Growing Degree Days 11 (Base 50)    
Moisture  
Dew Point 40 °F    
Average Humidity 47    
Maximum Humidity 68    
Minimum Humidity 26    
Precipitation  
Precipitation 0.00 in 0.12 in 1.44 in (1900)
Month to date precipitation 1.39 2.22  
Year to date precipitation 22.76 19.89  
Snow  
Snow 0.00 in - - ()
Month to date snowfall 0.0  
Since 1 July snowfall 5.7  
Snow Depth 0.00 in    
Sea Level Pressure  
Sea Level Pressure 30.24 in    
Wind  
Wind Speed 7 mph (NE)    
Max Wind Speed 16 mph    
Max Gust Speed 23 mph    
Visibility 10 miles    
Events      
T = Trace of Precipitation, MM = Missing Value Source: NWS Daily Summary

Daily Weather History Graph

Daily Weather History Graph

Search for Another Location

Airport or City:

Trip Planner

Search our weather history database for the weather conditions in past years. The results will help you decide how hot, cold, wet, or windy it might be!

Date:

Astronomy

May. 19, 2014 Rise Set
Actual Time 5:55 AM EDT 8:02 PM EDT
Civil Twilight 5:27 AM EDT 8:31 PM EDT
Nautical Twilight 4:52 AM EDT 9:06 PM EDT
Astronomical Twilight 4:14 AM EDT 9:43 PM EDT
Moon No Moon Rise 10:47 AM EDT (5/19)
Length of Visible Light 15h 04m
Length of Day
14h 07m
Waning Gibbous, 71% of the Moon is Illuminated
May 19
Waning Gibbous
May 21
Last Quarter
May 28
New
Jun 5
First Quarter
Jun 13
Full

Hourly Weather History & Observations

Time (EDT) Temp. Dew Point Humidity Pressure Visibility Wind Dir Wind Speed Gust Speed Precip Events Conditions
12:51 AM 64.0 °F 50.0 °F 60% 30.18 in 10.0 mi NE 10.4 mph 18.4 mph N/A   Overcast
1:51 AM 63.0 °F 51.1 °F 65% 30.18 in 10.0 mi NE 10.4 mph 17.3 mph N/A   Mostly Cloudy
2:51 AM 63.0 °F 44.1 °F 50% 30.17 in 10.0 mi NE 8.1 mph 19.6 mph N/A   Partly Cloudy
3:51 AM 63.0 °F 41.0 °F 45% 30.19 in 10.0 mi NE 10.4 mph - N/A   Mostly Cloudy
4:51 AM 62.1 °F 42.1 °F 48% 30.19 in 10.0 mi NE 8.1 mph 18.4 mph N/A   Clear
5:51 AM 62.1 °F 42.1 °F 48% 30.21 in 10.0 mi NE 8.1 mph - N/A   Clear
6:51 AM 63.0 °F 39.9 °F 43% 30.23 in 10.0 mi NNE 8.1 mph 16.1 mph N/A   Clear
7:51 AM 64.0 °F 39.9 °F 41% 30.24 in 10.0 mi NE 10.4 mph 17.3 mph N/A   Partly Cloudy
10:51 AM 66.9 °F 43.0 °F 42% 30.28 in 10.0 mi NE 12.7 mph 21.9 mph N/A   Clear
11:51 AM 68.0 °F 37.9 °F 33% 30.29 in 10.0 mi NE 8.1 mph 23.0 mph N/A   Clear
12:51 PM 68.0 °F 37.9 °F 33% 30.28 in 10.0 mi NE 10.4 mph 20.7 mph N/A   Clear
1:51 PM 70.0 °F 34.0 °F 27% 30.27 in 10.0 mi NNE 10.4 mph 19.6 mph N/A   Clear
2:51 PM 69.1 °F 34.0 °F 27% 30.27 in 10.0 mi NNE 9.2 mph - N/A   Clear
3:51 PM 69.1 °F 37.9 °F 32% 30.26 in 10.0 mi Variable 6.9 mph - N/A   Clear
5:51 PM 66.9 °F 32.0 °F 27% 30.24 in 10.0 mi East 9.2 mph - N/A   Clear
6:51 PM 64.9 °F 37.9 °F 37% 30.24 in 10.0 mi ENE 5.8 mph - N/A   Clear
7:51 PM 61.0 °F 39.0 °F 44% 30.25 in 10.0 mi ESE 3.5 mph - N/A   Clear
8:51 PM 55.0 °F 41.0 °F 59% 30.24 in 10.0 mi East 3.5 mph - N/A   Clear
9:51 PM 54.0 °F 39.9 °F 59% 30.26 in 10.0 mi East 3.5 mph - N/A   Clear
10:51 PM 52.0 °F 41.0 °F 66% 30.26 in 10.0 mi Calm Calm - N/A   Clear
11:51 PM 51.1 °F 39.9 °F 66% 30.25 in 10.0 mi Calm Calm - N/A   Clear